Home   Weather   Borås   Past weeks

Flag for Sweden Past Weather in Borås, Sweden — Yesterday and Last 2 Weeks

Now
39 °F

Low clouds.


Feels Like: 34 °F
Forecast: 29 / 38 °F
Wind: 7 mph from West

Location: Gothenburg / Landvetter

Current Time: Jan 20, 2017 at 9:11:36 am

Latest Report: Jan 20, 2017 at 8:20 am


Visibility: N/A

Pressure: 30.30 "Hg

Humidity: 93%

Dew Point: 37 °F

Location of BoråsLocation

Past Weather in Borås — Graph

°F

Borås Temperature Yesterday

Maximum temperature yesterday: 43 °F (at 12:50 pm)
Minimum temperature yesterday: 39 °F (at 12:20 am)
Average temperature yesterday: 41 °F

High & Low Weather Summary for the Past Weeks

 TemperatureHumidityPressure
High43 °F (Jan 19, 12:50 pm)100% (Jan 7, 5:20 am)30.69 "Hg (Jan 7, 5:20 am)
Low7 °F (Jan 6, 12:20 am)67% (Jan 5, 11:20 am)28.77 "Hg (Jan 11, 5:20 pm)
Average30 °F91%29.97 "Hg
* Reported Jan 5 7:20 am — Jan 20 7:50 am, Borås, Weather by CustomWeather, © 2017

Note: Actual official high and low records may vary slightly from our data, if they occured in-between our weather recording intervals... More about our weather records

Advertising

Borås Weather History for the Previous 24 Hours

Scroll right to see more
 ConditionsComfort  
Time TempWeatherWind HumidityBarometerVisibility
7:50 am
Fri, Jan 20
39 °FPassing clouds.10 mph93%30.30 "HgN/A
7:20 am39 °FPassing clouds.9 mph93%30.30 "HgN/A
6:50 am39 °FLow clouds.9 mph100%30.30 "HgN/A
6:20 am39 °FPassing clouds.9 mph93%30.30 "HgN/A
5:50 am39 °FPassing clouds.9 mph100%30.33 "Hg6 mi
5:20 am39 °FPassing clouds.7 mph100%30.33 "HgN/A
4:50 am39 °FPassing clouds.8 mph100%30.33 "HgN/A
4:20 am39 °FLow clouds.8 mph100%30.33 "HgN/A
3:50 am39 °FPassing clouds.8 mph100%30.33 "HgN/A
3:20 am39 °FFog.9 mph100%30.33 "Hg6 mi
2:50 am39 °FFog.9 mph100%30.33 "Hg6 mi
2:20 am39 °FFog.9 mph100%30.33 "Hg5 mi
1:50 am39 °FFog.8 mph100%30.36 "Hg6 mi
1:20 am39 °FFog.7 mph100%30.36 "Hg6 mi
12:50 am39 °FLow clouds.9 mph100%30.36 "Hg5 mi
12:20 am39 °FLow clouds.8 mph100%30.36 "Hg3 mi
11:50 pm
Thu, Jan 19
39 °FFog.9 mph100%30.36 "Hg1 mi
11:20 pm39 °FFog.12 mph100%30.36 "Hg1 mi
10:50 pm41 °FFog.14 mph93%30.36 "Hg6 mi
10:20 pm41 °FLow clouds.13 mph93%30.36 "HgN/A
9:50 pm41 °FLow clouds.9 mph93%30.36 "HgN/A
9:20 pm41 °FLow clouds.13 mph93%30.36 "HgN/A
8:50 pm41 °FLow clouds.12 mph100%30.33 "HgN/A
8:20 pm41 °FLow clouds.12 mph93%30.33 "HgN/A
7:50 pm41 °FLow clouds.14 mph100%30.33 "HgN/A
7:20 pm41 °FPassing clouds.10 mph100%30.33 "HgN/A
6:50 pm41 °FPassing clouds.12 mph100%30.36 "HgN/A
6:20 pm41 °FPassing clouds.12 mph93%30.33 "HgN/A
5:50 pm41 °FPassing clouds.9 mph100%30.33 "HgN/A
5:20 pm43 °FLow clouds.10 mph93%30.36 "HgN/A
4:50 pm43 °FLow clouds.12 mph93%30.33 "HgN/A
4:20 pm43 °FPassing clouds.14 mph93%30.36 "HgN/A
3:50 pm43 °FPartly sunny.14 mph93%30.36 "HgN/A
3:20 pm43 °FPartly sunny.15 mph93%30.36 "HgN/A
2:50 pm43 °FLow clouds.14 mph93%30.33 "HgN/A
2:20 pm43 °FLow clouds.17 mph93%30.33 "HgN/A
1:50 pm43 °FLow clouds.13 mph93%30.33 "HgN/A
1:20 pm43 °FLow clouds.12 mph93%30.36 "HgN/A
12:50 pm43 °FPartly sunny.12 mph93%30.36 "HgN/A
12:20 pm41 °FPartly sunny.12 mph100%30.36 "Hg6 mi
11:50 am41 °FFog.12 mph100%30.36 "Hg2 mi
11:20 am41 °FFog.10 mph100%30.36 "Hg1 mi
10:50 am41 °FFog.12 mph100%30.36 "Hg0 mi
10:20 am39 °FFog.12 mph100%30.39 "Hg0 mi
9:50 am41 °FFog.10 mph93%30.39 "Hg0 mi
9:20 am41 °FFog.10 mph93%30.39 "Hg1 mi
Weather by CustomWeather, © 2017

See weather overviewHow to use our weather pages